Temperature
17 17 18 18 17 17 17 17 17 17 17 17 16 17 17 17 17 17 17 17 17 17 17 17 17 17 17 17 17 17 17 17 17 17 17 17 17 17 17 17 17 17 17
17 17 17 17 17 17 17 17 17 17 17 17 17 17 17 17 17 17 17 17 17 17 17 17 17 17 17 17 17 17 17 17 17 17 17 17 17 16 16 17 17 17 17
17 17 17 17 17 17 17 17 17 17 17 17 17 16 16 16 17 17 17 17 17 17 17 17 17 17 17 17 17 17 17 17 17 17 17 17 16 16 16 16 17 17 17
17 17 17 17 17 17 17 17 17 17 17 17 16 16 16 16 16 16 16 16 17 17 17 17 17 17 17 16 16 16 17 17 17 17 17 16 16 16 16 16 16 17 17
18 17 17 17 17 17 17 17 17 17 17 16 16 16 16 16 16 16 16 16 16 17 17 17 17 17 16 16 16 16 16 17 17 17 17 16 16 16 16 16 16 16 17
18 17 17 17 17 17 17 17 17 17 17 16 16 16 16 15 16 16 16 16 16 16 17 17 17 17 16 16 16 16 16 16 16 16 16 17 16 16 16 16 16 16 16
18 18 18 17 17 17 17 17 17 17 16 16 16 16 15 15 15 15 16 16 16 16 16 16 16 17 16 16 16 16 16 16 16 16 16 16 16 16 16 16 16 16 16
18 18 17 17 17 17 17 17 17 17 16 16 16 16 15 15 15 15 15 15 16 16 16 16 16 16 16 16 16 16 16 16 16 16 16 16 16 16 16 16 16 15 15
17 17 17 17 17 17 17 17 17 17 16 16 16 16 16 15 15 15 15 15 15 15 16 16 16 16 16 16 16 16 16 16 16 16 16 16 16 16 16 16 15 15 15
17 17 17 17 17 17 17 17 17 16 16 16 16 16 16 16 16 15 15 15 15 15 15 15 15 16 16 16 16 16 16 16 16 16 16 16 16 15 15 15 15 15 15
17 17 17 16 16 16 16 16 16 16 16 16 16 15 16 16 16 16 16 16 15 15 15 15 15 15 16 16 16 16 16 16 16 16 16 16 16 16 15 15 15 15 15
17 17 17 16 16 16 15 15 16 16 16 16 16 15 15 15 16 16 16 16 16 16 15 15 15 15 16 16 15 16 16 16 16 16 16 16 16 16 15 15 15 14 14
17 17 16 16 16 16 15 15 15 15 16 16 15 15 15 15 15 15 15 15 15 16 15 15 15 15 15 16 16 16 16 16 16 16 16 16 16 15 15 15 15 14 14
16 16 16 16 15 15 15 15 15 15 15 15 15 15 15 15 15 15 15 15 15 15 15 16 16 16 16 16 16 16 16 16 16 16 15 15 15 15 15 15 14 14 14
16 16 16 15 15 15 15 15 15 15 15 15 15 15 15 15 15 15 15 15 15 15 15 16 16 16 16 16 16 16 16 16 16 16 15 15 15 14 14 14 14 14 14
16 16 16 15 15 15 15 15 15 15 15 14 14 14 14 15 15 15 15 14 14 15 15 16 16 16 16 16 16 15 15 15 15 15 15 15 15 14 14 14 14 14 14
16 16 16 15 15 15 15 15 15 15 14 14 14 14 14 14 14 14 14 14 14 14 15 16 16 16 16 16 16 15 15 15 15 15 15 15 15 14 14 14 14 15 15
16 16 15 15 15 15 15 15 15 14 14 14 14 14 14 14 14 14 14 14 14 14 14 15 16 16 16 16 16 15 15 15 15 15 15 15 15 14 14 14 14 14 15
16 16 15 15 15 15 15 15 15 14 14 14 13 13 13 13 13 13 13 13 14 14 14 14 15 15 15 16 15 15 15 15 15 15 15 14 14 14 14 14 14 14 14
16 16 15 15 15 15 15 15 15 15 14 14 14 13 13 13 13 13 13 13 13 13 13 14 14 14 15 15 15 15 14 14 14 14 14 14 14 14 14 14 14 14 14
16 16 15 15 15 15 15 15 15 15 14 14 14 13 13 13 13 12 12 12 12 13 13 13 13 14 14 14 14 14 14 14 14 14 14 14 14 14 13 13 14 14 14
16 16 16 15 15 15 15 14 15 15 14 14 14 13 13 13 13 12 12 12 12 12 12 12 13 13 13 14 14 14 14 13 13 14 14 14 14 14 13 13 13 14 14
16 15 16 15 15 15 14 14 14 14 14 14 14 14 13 13 13 13 13 12 12 12 12 12 12 13 13 13 13 14 14 14 14 14 13 13 13 14 13 13 13 13 13
15 15 15 15 15 15 15 14 14 14 14 14 14 14 14 13 13 13 13 13 12 12 12 12 12 13 13 13 13 13 14 14 14 13 13 13 13 13 13 13 13 13 13
14 14 14 14 14 15 14 14 14 14 14 14 14 14 14 14 14 13 13 13 13 12 12 12 13 13 13 13 13 13 13 13 14 14 14 13 13 13 13 13 13 13 13
13 13 13 14 14 14 14 14 14 14 14 14 14 14 14 14 14 14 13 13 13 13 13 13 13 13 13 13 13 13 13 13 13 13 14 13 13 13 13 13 13 13 13
Wind_Speed
6 4 4 6 7 7 4 1 1 3 6 7 8 8 6 6 7 7 6 7 6 7 7 7 7 6 5 6 7 8 8 8 8 8 8 7 6 5 3 2 4 5 5
7 5 5 4 6 8 6 4 4 4 5 5 5 6 6 6 7 8 8 8 8 8 9 9 8 8 7 8 8 8 8 7 6 6 6 6 6 5 4 3 4 5 5
12 8 7 6 6 10 6 5 5 5 6 5 5 5 5 5 5 6 7 8 9 9 10 10 9 8 8 8 8 8 7 5 4 4 5 5 5 4 4 3 3 3 3
15 10 8 8 9 8 5 5 5 5 5 4 3 3 3 4 4 5 5 6 8 9 11 12 11 9 8 8 8 7 6 4 3 2 3 3 3 3 4 5 3 1 2
12 9 7 7 9 5 5 7 5 5 4 4 3 2 3 4 4 5 4 4 7 9 10 11 12 11 10 8 7 6 5 4 3 2 1 2 2 3 4 5 4 2 2
6 6 4 6 6 6 6 6 6 4 4 5 4 3 3 2 3 5 4 4 6 7 7 8 9 9 10 10 8 6 6 5 5 4 2 1 2 3 4 5 5 4 3
4 4 3 5 6 7 8 8 5 5 3 3 4 3 4 3 2 3 3 3 4 6 7 6 6 7 8 9 10 10 9 9 9 8 6 3 2 2 3 3 3 4 4
6 5 6 4 5 6 7 7 6 5 3 3 4 4 2 3 3 1 2 4 4 4 5 7 7 7 7 7 8 9 10 10 10 10 9 7 5 3 2 1 2 3 4
6 5 6 5 4 5 7 8 8 8 5 3 3 5 4 5 3 2 2 3 4 3 3 6 9 8 8 7 6 7 8 8 8 8 9 9 7 5 4 3 2 2 2
5 5 5 6 6 5 6 7 7 6 7 5 2 2 3 4 4 2 2 2 3 4 5 4 8 10 9 8 7 6 7 7 6 6 8 9 9 9 9 8 7 6 7
4 4 5 5 6 5 6 6 6 6 6 6 5 3 1 1 2 3 3 3 2 4 4 5 6 9 11 11 9 8 6 6 6 5 6 7 8 9 9 8 7 8 9
2 3 4 5 6 5 6 7 7 8 7 7 6 5 4 3 3 3 2 3 4 4 4 4 5 8 12 13 11 11 9 6 5 5 5 5 5 6 6 7 6 6 6
3 3 3 4 4 5 6 6 6 7 8 9 8 6 6 5 3 3 2 2 3 3 3 3 4 8 12 14 13 14 11 9 7 5 5 5 4 4 4 3 4 4 4
3 3 3 3 4 4 5 5 5 6 7 8 9 8 6 6 5 4 4 3 2 2 3 5 4 6 11 14 15 15 12 11 9 7 5 4 3 2 2 2 3 4 4
3 4 3 3 3 3 4 4 4 5 5 6 7 9 7 7 7 6 5 4 4 5 6 6 5 7 10 13 15 15 13 13 11 10 8 6 4 2 1 0 2 3 5
4 5 3 3 2 2 2 3 2 3 5 5 5 7 7 7 8 8 7 6 5 5 5 6 7 5 7 10 15 15 15 14 14 12 10 8 6 4 3 1 1 3 5
6 6 5 4 4 4 3 3 3 3 4 4 4 6 7 8 7 8 7 7 5 4 4 4 3 3 7 7 8 12 14 14 14 14 13 11 8 6 4 3 2 3 4
6 6 5 5 5 5 5 4 4 3 3 4 4 5 5 5 7 7 7 8 7 6 4 4 3 3 5 6 7 7 7 11 13 15 15 14 11 9 7 5 3 2 2
6 6 6 6 6 6 6 5 4 3 3 4 4 5 5 5 5 5 7 8 7 7 5 4 3 2 2 2 3 3 4 5 9 12 15 15 14 12 10 8 6 3 2
7 7 7 7 7 6 6 5 4 4 3 3 4 4 4 5 5 5 5 7 7 8 6 4 3 2 3 2 3 3 4 5 6 7 12 13 15 15 13 11 8 6 5
8 7 7 6 6 6 6 7 6 5 5 5 4 4 5 6 6 5 4 4 6 6 6 5 3 2 3 3 4 5 6 5 5 5 5 6 8 9 12 13 12 10 9
6 6 7 7 7 7 9 12 9 7 6 6 6 6 6 7 9 10 8 8 6 5 5 4 3 3 4 5 4 5 5 4 5 5 6 5 5 7 8 13 15 14 13
4 5 6 7 7 9 12 13 15 8 7 7 7 6 6 7 10 7 10 11 11 10 8 5 4 5 5 6 6 6 8 8 8 5 6 6 5 7 8 13 17 18 17
2 4 5 6 7 9 12 13 14 9 7 7 7 7 7 8 7 9 8 7 8 9 10 8 7 8 9 7 7 8 9 8 4 4 6 6 5 6 5 11 17 20 20
2 2 3 4 6 7 9 11 10 5 6 6 6 6 7 7 10 11 9 8 7 7 10 13 14 12 13 13 9 5 5 5 6 5 6 6 4 4 3 4 13 20 22
4 4 3 2 3 4 5 8 10 5 5 4 4 4 5 7 10 11 10 8 8 7 5 5 6 7 5 4 5 6 6 6 4 4 5 6 4 4 3 3 3 9 14
Wind_Direction
175 173 184 199 215 224 223 206 246 114 110 116 117 112 106 101 90 79 86 103 115 127 133 133 129 120 121 134 143 146 149 150 149 146 146 147 143 145 147 132 113 104 88
183 177 187 199 218 225 220 185 166 141 117 113 116 121 119 112 98 86 77 83 103 116 122 123 121 116 112 111 117 122 129 132 135 135 139 143 145 150 154 152 120 101 85
192 188 192 197 215 226 206 155 154 127 111 108 119 133 139 137 115 99 85 77 83 100 113 112 111 112 111 111 112 115 118 122 124 124 127 132 144 156 163 169 138 100 71
189 187 192 197 203 196 166 150 152 126 119 118 120 129 131 143 144 128 104 88 83 84 90 93 91 97 109 111 114 115 117 120 123 124 126 139 155 166 172 171 159 115 8
183 183 191 195 187 167 160 160 156 141 143 141 138 113 110 135 156 142 131 126 110 99 92 88 83 79 87 94 102 111 123 131 135 137 152 177 187 179 164 161 164 200 305
190 180 194 192 179 165 164 160 155 145 158 158 144 101 68 104 138 144 155 158 145 130 118 109 94 81 77 74 74 89 105 114 115 120 130 164 202 195 178 171 177 194 245
180 167 194 200 185 177 176 164 150 147 147 137 108 73 13 12 108 142 155 160 172 166 150 138 120 104 85 72 66 69 73 78 81 77 78 94 130 168 180 189 201 205 218
181 182 187 201 201 185 177 173 154 144 148 152 138 118 57 341 326 53 161 179 188 181 181 186 156 133 120 99 78 69 62 64 68 66 64 69 83 107 129 168 208 212 218
196 186 182 183 206 202 191 186 174 155 158 174 160 147 154 205 249 306 230 203 194 190 187 180 183 165 147 131 107 83 72 65 70 69 66 62 64 75 84 94 114 134 147
203 193 187 184 191 196 203 204 188 170 153 164 176 176 156 158 158 205 292 261 222 203 189 173 176 178 169 153 136 114 92 78 82 81 73 67 67 72 73 73 77 81 86
215 196 184 183 189 191 200 208 193 187 168 163 166 162 138 153 140 145 203 244 258 244 210 179 170 175 178 169 157 147 129 108 100 95 84 74 67 67 66 64 68 80 83
212 199 186 191 197 196 199 204 198 194 188 170 171 169 174 180 191 152 163 207 222 246 230 201 180 179 183 181 176 168 159 151 135 114 97 85 71 61 53 51 57 60 65
213 216 192 198 202 207 205 198 196 199 191 182 180 185 189 190 166 154 153 203 220 244 225 221 204 186 187 188 188 179 175 173 163 143 119 101 85 71 56 41 32 25 31
209 203 188 195 200 204 205 202 203 202 197 196 195 191 192 196 185 172 164 168 204 242 236 230 206 197 191 190 193 185 184 185 180 172 157 138 113 94 70 50 24 9 4
184 180 177 183 183 185 197 197 208 209 198 203 206 203 202 201 196 189 171 169 181 209 231 225 210 204 193 191 193 190 190 193 192 189 181 173 165 161 161 101 6 355 351
170 167 182 200 198 176 163 172 189 195 194 206 207 208 212 210 203 198 184 176 183 198 228 229 215 201 185 193 195 192 195 198 199 199 195 191 190 193 199 221 317 341 338
179 183 191 201 203 198 185 174 179 177 195 212 213 213 220 213 209 203 188 183 187 181 224 256 226 201 177 180 178 190 199 201 202 205 205 204 206 212 220 237 282 326 336
191 192 192 194 201 206 204 199 202 196 207 223 223 218 223 217 212 202 194 194 194 185 192 227 225 197 193 191 176 179 193 202 201 210 212 211 213 218 223 230 248 287 330
201 202 199 202 204 207 209 211 211 217 223 227 222 217 215 201 205 202 201 197 194 188 175 190 214 212 193 158 158 185 192 202 207 217 219 218 217 221 224 228 234 244 237
204 205 210 211 208 205 206 208 208 216 224 226 220 215 210 202 199 195 197 191 184 178 171 171 181 200 198 157 153 181 204 215 215 211 214 213 217 223 226 230 233 236 227
214 209 212 218 212 203 208 204 203 209 214 221 221 216 213 210 201 193 186 182 181 175 166 162 165 177 187 171 197 195 212 209 223 205 197 205 208 218 223 230 233 233 228
229 219 216 216 212 215 217 208 200 204 208 216 225 228 228 234 232 223 210 196 186 175 167 158 162 190 209 215 210 201 200 191 235 210 190 217 192 218 221 224 229 229 228
237 234 227 215 214 223 227 220 211 203 208 216 221 224 234 234 231 227 228 219 209 202 192 175 193 215 225 224 216 213 206 210 221 189 172 216 201 225 222 225 225 225 225
257 241 234 224 222 231 232 231 218 205 213 221 221 222 232 245 227 212 210 213 215 212 211 215 222 232 238 238 225 223 221 224 231 189 169 200 200 216 218 218 225 222 219
334 290 256 230 226 243 241 235 213 190 215 232 236 234 232 242 246 218 199 211 221 227 226 225 228 239 246 248 236 218 205 200 228 223 190 198 199 198 214 224 227 225 219
339 335 334 299 253 257 265 242 206 187 214 238 255 266 263 255 251 222 198 199 214 225 211 202 216 230 241 266 249 215 207 205 210 234 199 186 177 159 236 254 223 218 214
Height
1534 1536 1537 1538 1539 1540 1540 1541 1541 1541 1542 1542 1542 1542 1542 1541 1540 1540 1539 1539 1540 1540 1541 1542 1543 1543 1544 1544 1545 1546 1547 1547 1548 1548 1548 1549 1549 1550 1550 1550 1550 1549 1548
1534 1536 1537 1539 1540 1540 1541 1541 1542 1543 1543 1543 1543 1543 1542 1542 1542 1541 1541 1540 1540 1541 1541 1542 1543 1544 1544 1545 1545 1546 1547 1548 1548 1548 1548 1548 1549 1549 1549 1550 1549 1549 1548
1533 1535 1537 1538 1539 1540 1541 1541 1542 1543 1544 1544 1544 1543 1543 1543 1543 1543 1542 1542 1542 1542 1542 1543 1544 1544 1544 1545 1545 1546 1547 1547 1547 1547 1547 1547 1548 1548 1548 1549 1549 1549 1548
1532 1534 1535 1537 1538 1539 1540 1541 1542 1543 1544 1544 1544 1544 1544 1543 1543 1544 1544 1544 1544 1543 1544 1544 1545 1545 1545 1545 1545 1546 1546 1546 1546 1546 1546 1546 1547 1547 1547 1547 1548 1548 1547
1530 1532 1533 1535 1536 1537 1539 1540 1541 1542 1543 1544 1545 1545 1545 1544 1544 1544 1545 1545 1545 1545 1545 1545 1546 1546 1546 1546 1546 1546 1546 1546 1545 1545 1545 1545 1546 1546 1546 1546 1546 1546 1546
1528 1529 1531 1533 1534 1535 1536 1538 1539 1541 1542 1543 1544 1546 1546 1545 1544 1544 1545 1546 1546 1546 1546 1546 1547 1547 1547 1547 1547 1546 1546 1546 1545 1545 1545 1544 1544 1544 1544 1545 1545 1545 1545
1526 1527 1528 1530 1531 1533 1534 1535 1537 1538 1540 1542 1543 1545 1546 1546 1545 1544 1545 1546 1546 1546 1546 1546 1547 1547 1548 1548 1548 1547 1547 1547 1546 1546 1545 1544 1544 1544 1543 1543 1544 1544 1544
1523 1524 1525 1526 1528 1529 1531 1532 1533 1535 1537 1539 1540 1542 1544 1546 1544 1544 1544 1545 1546 1546 1546 1546 1547 1547 1548 1548 1548 1548 1548 1547 1547 1547 1546 1545 1544 1544 1543 1543 1543 1543 1543
1520 1521 1522 1523 1524 1525 1527 1528 1529 1531 1533 1535 1537 1540 1541 1541 1542 1543 1543 1544 1545 1545 1546 1546 1546 1547 1548 1548 1548 1548 1548 1548 1548 1547 1546 1545 1545 1544 1543 1543 1543 1542 1542
1517 1517 1518 1519 1520 1521 1523 1524 1525 1527 1529 1531 1534 1536 1538 1539 1540 1540 1542 1543 1544 1544 1544 1545 1545 1546 1547 1548 1548 1548 1548 1548 1548 1547 1546 1546 1545 1544 1544 1543 1543 1542 1541
1513 1514 1514 1515 1516 1517 1519 1521 1521 1523 1525 1527 1529 1532 1534 1536 1537 1538 1538 1540 1542 1542 1543 1543 1544 1545 1546 1546 1547 1547 1547 1547 1547 1547 1546 1545 1545 1544 1544 1543 1543 1542 1541
1510 1510 1511 1511 1512 1513 1514 1516 1517 1518 1521 1523 1526 1528 1530 1532 1534 1535 1537 1538 1539 1540 1541 1542 1542 1543 1544 1545 1545 1545 1546 1546 1546 1546 1545 1545 1544 1543 1543 1542 1542 1541 1540
1508 1508 1508 1508 1508 1509 1510 1511 1512 1513 1516 1518 1521 1524 1527 1529 1531 1533 1534 1536 1537 1538 1539 1540 1540 1541 1542 1543 1544 1544 1544 1544 1544 1544 1544 1544 1543 1542 1541 1541 1540 1540 1539
1506 1506 1505 1505 1505 1505 1505 1506 1508 1509 1511 1513 1516 1519 1522 1524 1526 1528 1530 1533 1534 1536 1536 1537 1538 1539 1540 1541 1542 1542 1542 1542 1542 1542 1542 1542 1541 1541 1540 1539 1538 1537 1536
1504 1503 1503 1502 1502 1501 1502 1502 1503 1505 1506 1508 1511 1513 1516 1519 1521 1523 1526 1529 1532 1532 1532 1534 1535 1536 1538 1539 1540 1540 1540 1540 1541 1540 1540 1540 1540 1539 1538 1537 1536 1535 1535
1502 1502 1501 1501 1500 1500 1499 1500 1500 1501 1502 1504 1506 1508 1510 1513 1515 1518 1521 1523 1526 1528 1528 1530 1532 1534 1535 1536 1537 1538 1538 1539 1539 1539 1539 1539 1538 1538 1537 1535 1534 1533 1533
1500 1500 1500 1500 1499 1499 1498 1498 1498 1498 1498 1500 1501 1502 1504 1507 1509 1512 1515 1517 1519 1522 1524 1526 1528 1530 1532 1533 1534 1535 1536 1537 1537 1537 1537 1537 1536 1536 1535 1533 1532 1531 1531
1499 1499 1499 1499 1499 1498 1498 1497 1496 1496 1496 1496 1497 1498 1499 1501 1503 1505 1508 1511 1513 1516 1519 1522 1524 1526 1528 1530 1531 1532 1533 1534 1535 1535 1535 1535 1534 1533 1532 1531 1530 1529 1529
1498 1498 1498 1498 1498 1498 1497 1497 1496 1495 1495 1495 1495 1495 1496 1497 1498 1500 1502 1505 1508 1511 1514 1517 1520 1522 1524 1526 1527 1528 1529 1530 1531 1532 1532 1532 1532 1531 1530 1529 1528 1527 1526
1497 1497 1497 1497 1497 1497 1497 1496 1496 1495 1495 1494 1494 1494 1494 1495 1496 1497 1498 1499 1502 1505 1508 1511 1515 1518 1519 1521 1522 1523 1524 1526 1527 1528 1528 1528 1528 1528 1527 1527 1526 1525 1524
1495 1495 1495 1495 1495 1496 1496 1496 1495 1495 1494 1494 1494 1494 1494 1493 1494 1495 1495 1496 1497 1499 1502 1505 1509 1512 1515 1516 1517 1519 1519 1521 1522 1522 1523 1523 1524 1524 1524 1524 1523 1522 1522
1492 1492 1493 1493 1493 1493 1494 1494 1494 1494 1494 1494 1493 1493 1493 1493 1493 1493 1494 1494 1495 1495 1497 1500 1504 1507 1510 1512 1514 1514 1515 1515 1516 1518 1518 1518 1519 1519 1520 1520 1519 1519 1518
1488 1488 1489 1489 1490 1490 1491 1491 1492 1492 1492 1492 1492 1492 1492 1492 1492 1492 1492 1492 1493 1494 1495 1497 1499 1502 1505 1507 1509 1509 1509 1509 1510 1512 1513 1513 1514 1514 1516 1515 1515 1515 1515
1483 1484 1484 1485 1486 1486 1487 1488 1488 1489 1489 1489 1490 1490 1490 1490 1490 1491 1491 1491 1491 1492 1492 1494 1496 1498 1501 1502 1503 1504 1505 1505 1505 1506 1507 1507 1508 1510 1511 1511 1512 1512 1512
1479 1479 1480 1480 1481 1482 1483 1483 1484 1485 1485 1486 1487 1487 1487 1487 1488 1488 1489 1489 1489 1490 1491 1492 1493 1495 1497 1498 1499 1499 1499 1500 1499 1500 1502 1502 1503 1504 1506 1507 1508 1508 1508
1475 1475 1475 1476 1476 1477 1478 1479 1480 1480 1481 1482 1483 1484 1484 1484 1485 1485 1486 1487 1487 1488 1489 1490 1491 1492 1493 1494 1494 1494 1495 1495 1495 1495 1496 1497 1498 1500 1500 1501 1502 1503 1504